Probability
0 0 0 0 0 0 0 0 0 0 0 0 0 0 0 0 0 0 0 0 0 0 0 0 0 0 0 0 0 0 1 1 1 0 0 0 1 1
0 0 0 0 0 0 0 0 0 0 0 0 0 0 0 0 0 0 0 0 0 0 0 0 0 0 0 0 0 0 0 0 0 0 0 0 0 1
0 0 0 0 0 0 0 0 0 0 0 0 0 0 0 0 0 0 0 0 0 0 0 0 0 0 0 0 0 0 0 0 0 0 0 0 0 0
0 0 0 0 0 0 0 0 0 0 0 0 0 0 0 0 0 0 0 0 0 0 0 0 0 0 0 0 0 0 0 0 0 0 0 0 0 0
0 0 0 0 0 0 0 0 0 0 0 0 0 0 0 0 0 0 0 0 0 0 0 0 0 0 0 0 0 0 0 0 0 0 0 0 0 0
0 0 0 0 0 0 0 0 0 0 0 0 0 0 0 0 0 0 0 0 0 0 0 0 0 0 0 0 0 0 0 0 0 0 0 0 0 0
0 0 0 0 0 0 0 0 0 0 0 0 0 0 0 0 0 0 0 0 0 0 0 0 0 0 0 0 0 0 0 0 0 0 0 0 0 0
0 0 0 0 0 0 0 0 0 0 0 0 0 0 0 0 0 0 0 0 0 0 0 0 0 0 0 0 0 0 0 0 0 0 0 0 0 0
0 0 0 0 0 0 0 0 0 0 0 0 0 0 0 0 0 0 0 0 0 0 0 0 0 0 0 0 0 0 0 0 0 0 0 0 0 0
0 0 0 0 0 0 0 0 0 0 0 0 0 0 0 0 0 0 0 0 0 0 0 0 0 0 0 0 0 0 0 0 0 0 0 0 0 0
0 0 0 0 0 0 0 0 0 0 0 0 0 0 0 0 0 0 0 0 0 0 0 0 0 0 0 0 0 0 0 0 0 0 0 0 0 0
0 0 0 0 0 0 0 0 0 0 0 0 0 0 0 0 0 0 0 0 0 0 0 0 0 0 0 0 0 0 0 0 0 0 0 0 0 0
0 0 0 0 0 0 0 0 0 0 0 0 0 0 0 0 0 0 0 0 0 0 0 0 0 0 0 0 0 0 0 0 0 0 0 0 0 0
0 0 0 0 0 0 0 0 0 0 0 0 0 0 0 0 0 0 0 0 0 0 0 0 0 0 0 0 0 0 0 0 0 0 0 0 0 0
0 0 0 0 0 0 0 0 0 0 0 0 0 0 0 0 0 0 0 0 0 0 0 0 0 0 0 0 0 0 0 0 0 0 0 0 0 0
0 0 0 0 0 0 0 0 0 0 0 0 0 0 0 0 0 0 0 0 0 0 0 0 0 0 0 0 0 0 0 0 0 0 0 0 0 0
0 0 0 0 0 0 0 0 0 0 0 0 0 0 0 0 0 0 0 0 0 0 0 0 0 0 0 0 0 0 0 0 0 0 0 0 0 0
0 0 0 0 0 0 0 0 0 0 0 0 0 0 0 0 0 0 0 0 0 0 0 0 0 0 0 0 0 0 0 0 0 0 0 0 0 0
0 0 0 0 0 0 0 0 0 0 0 0 0 0 0 0 0 0 0 0 0 0 0 0 0 0 0 0 0 0 0 0 0 0 0 0 0 0
0 0 0 0 0 0 0 0 0 0 0 0 0 0 0 0 0 0 0 0 0 0 0 0 0 0 0 0 0 0 0 0 0 0 0 0 0 0
0 0 0 0 0 0 0 0 0 0 0 0 0 0 0 0 0 0 0 0 0 0 0 0 0 0 0 0 0 0 0 0 0 0 0 0 0 0
0 0 0 0 0 0 0 0 0 0 0 0 0 0 0 0 0 0 0 0 0 0 0 0 0 0 0 0 0 0 0 0 0 0 0 0 0 0
0 0 0 0 0 0 0 0 0 0 0 0 0 0 0 0 0 0 0 0 0 0 0 0 0 0 0 0 0 0 0 0 0 0 0 0 0 0
Wind_Speed
5 5 4 3 4 4 3 3 2 2 3 3 3 3 3 2 4 4 3 4 5 5 5 5 4 4 4 4 4 4 4 4 4 4 4 4 6 8
3 4 4 3 3 4 3 3 3 2 1 2 2 3 4 5 6 5 4 5 5 5 5 5 4 4 4 4 4 4 4 4 5 5 5 5 5 5
4 4 4 4 3 4 3 3 3 3 2 2 2 3 5 5 5 4 4 3 3 5 5 5 5 5 5 5 5 5 5 5 6 6 6 6 6 5
4 4 4 4 4 4 3 4 3 3 3 3 3 3 4 4 4 5 5 5 4 6 6 6 6 6 7 7 7 7 6 6 7 7 7 8 8 8
4 5 5 5 5 4 4 4 3 4 3 2 3 3 3 4 4 5 6 4 6 6 6 7 7 8 8 8 8 8 7 7 7 8 8 8 8 8
4 4 4 5 5 5 4 4 4 4 4 3 3 3 3 3 3 3 4 4 5 6 6 7 7 8 9 9 8 8 7 7 7 8 8 8 8 8
2 3 4 5 6 4 3 3 4 3 3 3 3 3 3 4 3 3 4 4 5 4 4 5 5 4 5 7 8 8 8 7 8 8 8 9 9 10
3 2 3 4 4 4 5 4 3 3 2 2 2 3 4 4 3 4 4 4 4 4 4 5 4 5 4 4 7 9 9 9 9 9 9 9 10 10
3 3 3 4 4 3 5 5 4 4 4 2 2 3 4 4 4 4 4 4 5 5 4 5 4 5 5 6 10 11 10 10 9 10 10 10 10 10
2 2 2 2 4 4 4 4 4 3 4 2 2 4 4 4 4 4 4 5 5 4 4 4 4 4 6 5 9 10 11 11 10 10 11 11 11 11
1 2 2 3 5 6 4 4 4 5 6 7 7 7 9 9 7 3 3 3 5 4 3 3 4 6 5 5 6 10 11 11 11 12 12 12 12 11
1 2 3 3 3 4 2 3 4 5 6 7 7 7 6 7 7 3 2 3 4 4 3 3 4 5 5 4 4 6 7 10 11 12 12 13 12 7
1 1 1 2 3 3 3 2 5 6 5 5 5 5 4 3 3 3 2 2 3 4 5 4 4 4 5 7 6 5 5 6 6 8 10 12 12 9
1 1 1 3 5 7 5 7 10 9 4 4 4 4 3 3 3 3 4 4 4 5 6 5 4 5 6 8 7 5 5 5 6 6 6 9 10 12
2 4 5 7 7 6 8 10 8 4 3 3 4 4 3 3 3 3 4 4 5 6 6 6 5 5 5 7 8 7 7 6 5 6 6 6 6 6
3 4 7 8 7 8 8 6 4 4 4 4 3 4 3 3 3 3 3 3 4 5 5 6 6 6 6 7 7 9 7 7 6 6 7 7 6 6
2 2 3 3 3 3 3 3 3 3 3 3 3 4 4 4 4 3 3 4 4 6 5 4 5 5 7 7 8 8 8 7 7 7 7 8 7 6
2 2 3 4 4 4 4 3 3 3 3 3 3 4 4 4 4 4 4 4 5 6 6 5 5 6 7 7 7 8 7 8 7 7 7 8 10 7
3 4 5 5 4 4 4 4 4 4 3 3 4 4 4 4 4 5 5 5 5 6 6 5 5 6 9 12 8 6 8 9 8 8 8 8 10 9
4 5 5 5 4 4 4 4 4 4 3 4 4 4 4 4 5 5 5 6 6 7 7 5 5 6 8 10 11 10 10 10 9 10 9 8 8 10
5 5 5 5 4 4 4 4 4 4 4 4 4 5 4 5 5 5 6 9 8 7 8 7 7 9 7 7 9 10 8 10 12 11 10 9 9 9
6 6 5 5 5 5 4 4 4 4 5 4 4 5 4 4 6 7 7 7 6 7 9 8 7 6 6 9 12 13 13 11 11 15 16 14 10 10
6 6 5 5 5 4 4 5 5 5 4 5 4 4 4 5 5 6 7 7 7 8 9 8 7 6 7 9 11 11 14 14 10 9 9 11 16 18
Wind_Direction
35 32 34 25 21 23 24 35 51 26 2 11 14 11 19 32 21 15 17 17 16 16 12 6 3 358 348 342 338 329 318 311 307 304 288 256 240 231
55 47 34 25 22 21 18 22 35 53 18 355 6 10 16 19 20 11 2 10 8 357 353 349 347 340 333 327 317 307 300 296 292 291 292 286 264 245
43 60 49 34 26 21 18 26 24 33 31 346 3 11 18 12 0 354 359 359 349 354 347 338 334 330 322 314 308 298 289 285 283 281 280 280 276 256
35 43 42 41 32 21 23 24 18 23 36 357 343 359 6 0 -0 358 359 358 346 345 347 346 343 332 319 310 304 296 286 279 275 274 274 274 276 269
49 45 38 39 29 20 25 23 13 13 12 4 342 347 349 355 2 354 355 348 345 347 347 347 339 331 322 313 307 300 290 282 276 272 270 270 271 270
63 61 51 50 35 18 24 17 15 10 1 2 348 340 339 338 4 354 347 343 336 341 352 341 328 323 319 316 308 301 296 289 282 277 272 266 262 263
55 80 79 70 54 35 23 11 13 7 358 359 347 342 340 350 350 340 341 327 321 333 338 328 323 316 310 303 302 300 295 291 285 281 275 269 263 261
22 47 84 71 49 15 358 0 4 3 352 345 335 335 331 336 337 340 334 335 320 318 330 316 320 312 304 300 308 306 298 290 282 277 274 270 266 262
18 21 34 52 45 21 348 337 328 322 319 310 323 313 316 322 330 328 320 312 297 293 314 304 309 310 310 322 322 314 302 295 287 281 275 269 265 262
20 33 52 49 40 29 4 356 340 330 316 313 290 292 301 302 301 296 292 302 300 304 317 305 309 309 315 314 310 312 314 305 297 295 288 277 268 263
0 38 57 69 44 34 16 345 332 323 322 324 311 304 304 305 304 315 319 320 311 305 314 312 312 312 305 302 307 313 316 312 304 299 295 289 278 271
9 53 62 72 44 30 11 336 320 311 322 324 318 313 306 300 302 283 272 296 303 301 309 318 309 320 308 294 309 318 312 305 301 296 293 291 285 279
353 6 4 10 354 335 322 287 282 296 302 301 300 300 300 303 305 301 297 283 291 290 298 309 303 305 292 300 303 299 298 300 300 295 289 286 285 277
308 313 311 322 317 307 296 284 289 298 290 288 293 295 297 299 302 307 305 299 285 285 292 297 293 295 297 298 298 297 295 289 288 288 287 289 284 279
260 277 291 298 300 292 277 280 285 277 274 275 279 281 281 284 292 300 302 299 298 295 298 295 291 289 285 287 291 294 298 291 277 283 287 283 277 278
265 281 289 286 279 276 278 276 260 248 250 256 265 272 280 288 287 284 288 294 299 295 286 286 290 292 291 284 285 290 288 286 291 285 283 278 273 265
276 283 281 282 279 277 279 277 273 275 277 274 275 283 285 288 288 286 281 288 291 294 298 294 288 286 281 284 289 287 287 284 282 286 287 283 276 268
249 255 263 265 268 272 275 279 279 275 270 272 276 279 283 286 289 291 288 288 288 289 289 291 301 306 301 283 260 279 285 285 285 284 281 280 278 270
233 246 252 254 256 259 260 263 267 268 269 272 274 276 278 282 286 289 289 288 287 286 285 287 293 299 302 300 290 266 284 289 287 284 277 271 274 274
227 239 247 250 251 254 257 261 267 274 274 273 275 277 275 277 280 282 283 284 287 289 290 287 282 280 283 290 295 292 277 276 283 284 283 275 273 275
237 239 243 247 248 250 252 254 258 262 268 271 273 273 274 277 279 279 281 284 285 286 286 284 275 279 281 290 291 288 283 273 272 277 283 283 285 284
241 241 241 242 243 245 247 250 255 259 264 265 270 274 275 276 281 285 285 285 283 281 283 283 284 286 284 285 288 292 295 294 283 277 272 265 267 271
238 239 240 241 242 243 245 251 257 259 260 263 267 271 276 279 280 282 286 284 283 285 287 290 290 283 280 280 285 289 291 295 294 291 285 269 259 262